{"data":{"norad_id":56358,"epoch":"2026-05-24T23:01:43.338432Z","epoch_age_seconds":71740,"freshness":"FRESH","line1":"1 56358U 23058AT  26144.95952938 -.00020548  00000+0 -14211-2 0  9993","line2":"2 56358  97.4532 144.9777 0001440  19.0292 341.0989 15.05728135169603","mean_motion":15.05728135,"eccentricity":0.000144,"inclination_deg":97.4532,"raan_deg":144.9777,"arg_perigee_deg":19.0292,"mean_anomaly_deg":341.0989,"bstar":-0.0014211,"rev_number":16960,"period_min":95.634793992874,"perigee_km":548.27394621425,"apogee_km":550.26903986024,"semimajor_km":6927.4084930372,"source":"CELESTRAK","updated_at":"2026-05-25T13:38:18.009018Z"}}